KE0TRL Weather Reports


Display with metric or nautical units.
time (UTC)temp
F
wind
direction
speed
MPH
gust
MPH
rain 1hr
in
rain 24hr
in
rain mn
in
humidity
%
barometer
mb
20260506205003 61 338 4.0 6.0 0.00 0.00 0.00 29 1015.6
20260506203802 63 270 5.0 5.0 0.00 0.00 0.00 30 1015.6
20260506202702 62 225 6.0 7.0 0.00 0.00 0.00 31 1015.6
20260506201602 62 158 2.0 3.0 0.00 0.00 0.00 34 1015.6
20260506200502 60 45 7.0 7.0 0.00 0.00 0.00 32 1015.6
20260506195402 59 23 4.0 9.0 0.00 0.00 0.00 32 1015.9
20260506194302 59 180 2.0 7.0 0.00 0.00 0.00 32 1015.9
20260506193202 58 90 3.0 6.0 0.00 0.00 0.00 31 1015.9
20260506192102 59 248 4.0 8.0 0.00 0.00 0.00 35 1015.9
20260506190902 57 180 3.0 4.0 0.00 0.00 0.00 35 1016.3
20260506185802 57 0 5.0 7.0 0.00 0.00 0.00 34 1016.3
20260506184703 59 23 6.0 7.0 0.00 0.00 0.00 35 1016.3
20260506183602 57 158 6.0 6.0 0.00 0.00 0.00 34 1016.6
20260506182402 59 180 3.0 6.0 0.00 0.00 0.00 35 1016.6
20260506181302 55 68 4.0 6.0 0.00 0.00 0.00 35 1016.6
20260506175102 55 45 5.0 6.0 0.00 0.00 0.00 35 1016.9
20260506172802 56 45 6.0 6.0 0.00 0.00 0.00 37 1016.9
20260506171702 56 180 3.0 5.0 0.00 0.00 0.00 35 1017.3
20260506170602 55 270 4.0 6.0 0.00 0.00 0.00 35 1017.6
20260506165402 55 248 3.0 5.0 0.00 0.00 0.00 37 1017.3
20260506164302 53 45 4.0 5.0 0.00 0.00 0.00 37 1017.6
20260506163202 55 23 4.0 5.0 0.00 0.00 0.00 39 1017.6
20260506162102 54 68 3.0 7.0 0.00 0.00 0.00 40 1017.6
20260506161003 53 270 3.0 9.0 0.00 0.00 0.00 37 1017.3
20260506155802 53 338 4.0 6.0 0.00 0.00 0.00 43 1017.3
20260506154702 52 158 4.0 4.0 0.00 0.00 0.00 41 1017.3
20260506153603 51 90 3.0 6.0 0.00 0.00 0.00 43 1017.3
20260506151402 51 248 1.0 4.0 0.00 0.00 0.00 40 1017.3
20260506150304 50 45 3.0 5.0 0.00 0.00 0.00 44 1017.3
20260506145202 50 180 4.0 4.0 0.00 0.00 0.00 44 1017.3
20260506144102 49 45 4.0 4.0 0.00 0.00 0.00 46 1017.6
20260506143003 48 158 2.0 4.0 0.00 0.00 0.00 45 1017.3
20260506141802 47 180 1.0 4.0 0.00 0.00 0.00 48 1017.3
20260506140702 47 68 3.0 3.0 0.00 0.00 0.00 50 1017.3
20260506135602 46 248 1.0 2.0 0.00 0.00 0.00 53 1017.3
20260506134402 45 68 2.0 3.0 0.00 0.00 0.00 54 1016.9
20260506133203 44 158 1.0 2.0 0.00 0.00 0.00 58 1016.9
20260506131003 41 68 0.0 3.0 0.00 0.00 0.00 61 1016.9
20260506125802 40 68 2.0 2.0 0.00 0.00 0.00 61 1016.6
20260506123502 38 225 2.0 2.0 0.00 0.00 0.00 63 1016.6
20260506122305 38 158 1.0 2.0 0.00 0.00 0.00 65 1016.3
20260506121202 38 338 1.0 2.0 0.00 0.00 0.00 66 1016.3
20260506114702 36 45 2.0 2.0 0.00 0.00 0.00 70 1015.6
20260506112402 36 158 0.0 0.0 0.00 0.00 0.00 70 1015.2
20260506111302 37 23 0.0 0.0 0.00 0.00 0.00 69 1015.2
20260506110203 37 68 0.0 0.0 0.00 0.00 0.00 68 1015.6
20260506105102 37 68 1.0 2.0 0.00 0.00 0.00 68 1015.6
20260506103902 38 90 0.0 2.0 0.00 0.00 0.00 66 1015.6
20260506102902 38 68 2.0 2.0 0.00 0.00 0.00 63 1015.6
20260506101702 39 90 1.0 1.0 0.00 0.00 0.00 63 1015.2
20260506100603 39 113 0.0 0.0 0.00 0.00 0.00 59 1015.2
20260506095502 40 180 0.0 1.0 0.00 0.00 0.00 59 1015.2
20260506094402 40 203 1.0 2.0 0.00 0.00 0.00 56 1015.2
20260506092103 41 158 2.0 2.0 0.00 0.00 0.00 55 1014.9
20260506090902 41 180 1.0 2.0 0.00 0.00 0.00 55 1014.9
20260506085802 42 135 2.0 2.0 0.00 0.00 0.00 54 1014.9
20260506083502 43 158 1.0 2.0 0.00 0.00 0.00 54 1014.6
20260506082304 43 180 1.0 2.0 0.00 0.00 0.00 55 1014.6
20260506081203 43 158 0.0 2.0 0.00 0.00 0.00 53 1014.6
20260506072402 44 158 2.0 3.0 0.00 0.00 0.00 50 1014.2
20260506071302 44 158 1.0 1.0 0.00 0.00 0.00 50 1013.9
20260506070202 44 158 1.0 2.0 0.00 0.00 0.00 50 1014.2
20260506061802 45 158 1.0 3.0 0.00 0.00 0.00 48 1013.9
20260506060602 45 158 1.0 3.0 0.00 0.00 0.00 46 1013.9
20260506044402 47 158 1.0 3.0 0.00 0.00 0.02 45 1013.5
20260506043102 47 180 1.0 2.0 0.00 0.00 0.02 45 1013.2
20260506042003 47 225 2.0 2.0 0.00 0.00 0.02 45 1013.2
20260506040902 48 203 1.0 3.0 0.00 0.00 0.02 43 1013.2
20260506034602 48 225 2.0 2.0 0.00 0.00 0.02 43 1013.2
20260506033503 48 225 3.0 3.0 0.00 0.00 0.02 43 1013.2
20260506032305 48 158 3.0 3.0 0.00 0.00 0.02 43 1012.9
20260506031202 49 158 2.0 5.0 0.00 0.00 0.02 41 1012.9
20260506030103 49 203 1.0 3.0 0.00 0.00 0.02 41 1012.5
20260506023902 49 158 1.0 3.0 0.00 0.00 0.02 40 1012.2
20260506022802 50 180 3.0 4.0 0.00 0.00 0.02 40 1012.2
20260506021702 50 113 2.0 4.0 0.00 0.00 0.02 39 1012.2
20260506020602 50 180 3.0 5.0 0.00 0.00 0.02 39 1011.9
20260506015502 50 158 2.0 3.0 0.00 0.00 0.02 39 1011.9
20260506013202 51 225 2.0 4.0 0.00 0.00 0.02 39 1011.5
20260506012102 51 158 2.0 4.0 0.00 0.00 0.02 39 1011.5
20260506011002 52 248 3.0 3.0 0.00 0.00 0.02 39 1011.5
20260506005902 52 158 3.0 6.0 0.00 0.00 0.02 39 1011.2
20260506004702 53 158 3.0 3.0 0.00 0.00 0.02 40 1011.5
20260506002502 53 158 7.0 7.0 0.00 0.00 0.02 37 1011.2
20260506001402 54 158 5.0 8.0 0.00 0.00 0.02 37 1010.8
20260505235102 54 45 5.0 7.0 0.00 0.00 0.02 35 1010.8
20260505234003 54 248 2.0 4.0 0.00 0.00 0.02 35 1010.8
20260505232902 54 180 5.0 6.0 0.00 0.00 0.02 35 1010.8
20260505231702 55 293 2.0 5.0 0.00 0.00 0.02 35 1010.8
20260505225502 56 203 6.0 8.0 0.00 0.00 0.02 35 1010.8
20260505224402 58 270 2.0 6.0 0.00 0.00 0.02 34 1010.5
20260505223302 59 180 3.0 6.0 0.00 0.00 0.02 35 1010.5
20260505222102 58 113 2.0 8.0 0.00 0.00 0.02 34 1010.5
20260505221002 58 180 6.0 6.0 0.00 0.00 0.02 35 1010.5
20260505215902 57 180 4.0 6.0 0.00 0.00 0.02 35 1010.2
20260505214702 57 158 6.0 9.0 0.00 0.00 0.02 35 1010.5
20260505213602 57 225 6.0 6.0 0.00 0.00 0.02 35 1010.5